Location: Geremba
(10.4250°N, 67.2394°W)
Time: 23:42:20
(UTC+00:00)

Cosmos 2218 Rocket - Pass Details

Date: 20 August 2024
Orbit: 956 x 1005 km, 82.9° (Epoch: 16 September)

Event Time Altitude Azimuth Distance (km) Brightness Sun altitude
Rises 23:13:13 0° 220° (SW) 3,652 7.4 -7.7°
Reaches altitude 10° 23:16:46 10° 240° (WSW) 2,715 7.1 -8.5°
Maximum altitude 23:20:25 16° 277° (W) 2,304 7.3 -9.4°
Drops below altitude 10° 23:24:07 10° 314° (NW) 2,735 7.4 -10.3°
Sets 23:27:45 0° 334° (NNW) 3,693 7.7 -11.2°
